QPF
0.01 0.01 0.01 0.02 0.04 0.03 0.03 0.01 0.01 0.00 0.00 0.00 0.00 0.00 0.01 0.03 0.04 0.02 0.02 0.03 0.03 0.01 0.00 0.01 0.02 0.02 0.03 0.03 0.02 0.03 0.03 0.03 0.02 0.02 0.02 0.03 0.03 0.03 0.04 0.05 0.07 0.06 0.04 0.04 0.05 0.03 0.03 0.02 0.02
0.01 0.01 0.02 0.04 0.04 0.02 0.03 0.01 0.01 0.00 0.00 0.00 0.00 0.00 0.01 0.02 0.02 0.01 0.02 0.03 0.01 0.00 0.00 0.00 0.02 0.03 0.04 0.04 0.03 0.03 0.04 0.03 0.01 0.02 0.02 0.02 0.03 0.03 0.03 0.05 0.07 0.07 0.06 0.07 0.07 0.06 0.04 0.02 0.03
0.01 0.01 0.02 0.04 0.02 0.02 0.02 0.01 0.01 0.00 0.00 0.00 0.00 0.00 0.01 0.02 0.02 0.01 0.02 0.02 0.01 0.01 0.00 0.01 0.02 0.01 0.02 0.02 0.02 0.03 0.02 0.02 0.02 0.02 0.02 0.02 0.04 0.04 0.04 0.05 0.05 0.06 0.06 0.10 0.11 0.08 0.04 0.03 0.03
0.01 0.02 0.03 0.02 0.01 0.01 0.01 0.01 0.00 0.00 0.00 0.00 0.00 0.00 0.01 0.02 0.01 0.01 0.02 0.02 0.01 0.00 0.00 0.00 0.01 0.01 0.01 0.02 0.02 0.01 0.01 0.02 0.02 0.02 0.04 0.04 0.03 0.03 0.03 0.04 0.04 0.05 0.05 0.05 0.06 0.05 0.03 0.03 0.03
0.02 0.03 0.02 0.01 0.01 0.01 0.01 0.02 0.00 0.00 0.00 0.00 0.00 0.00 0.01 0.01 0.01 0.01 0.01 0.01 0.00 0.00 0.00 0.00 0.01 0.03 0.02 0.02 0.02 0.01 0.01 0.02 0.02 0.02 0.04 0.05 0.05 0.04 0.03 0.03 0.03 0.04 0.04 0.04 0.04 0.04 0.03 0.02 0.02
0.02 0.03 0.02 0.01 0.01 0.02 0.01 0.01 0.00 0.00 0.00 0.00 0.00 0.00 0.01 0.00 0.00 0.03 0.03 0.01 0.00 0.00 0.00 0.00 0.01 0.02 0.03 0.04 0.02 0.01 0.01 0.02 0.02 0.02 0.03 0.04 0.05 0.03 0.03 0.02 0.03 0.03 0.04 0.05 0.05 0.04 0.03 0.03 0.02
0.03 0.03 0.01 0.01 0.01 0.02 0.01 0.00 0.00 0.00 0.00 0.00 0.00 0.00 0.01 0.01 0.00 0.03 0.05 0.02 0.00 0.00 0.00 0.00 0.00 0.01 0.06 0.09 0.03 0.02 0.02 0.02 0.03 0.02 0.04 0.02 0.02 0.03 0.03 0.03 0.03 0.03 0.04 0.04 0.04 0.03 0.04 0.03 0.02
0.03 0.03 0.01 0.01 0.01 0.01 0.01 0.00 0.00 0.00 0.00 0.00 0.00 0.00 0.01 0.00 0.00 0.02 0.03 0.01 0.01 0.01 0.00 0.00 0.01 0.01 0.07 0.15 0.10 0.05 0.03 0.03 0.03 0.02 0.02 0.02 0.03 0.04 0.04 0.03 0.03 0.03 0.03 0.02 0.02 0.02 0.02 0.03 0.02
0.02 0.01 0.01 0.00 0.00 0.00 0.00 0.00 0.00 0.00 0.01 0.00 0.00 0.00 0.00 0.00 0.00 0.01 0.01 0.00 0.01 0.01 0.01 0.01 0.00 0.00 0.03 0.10 0.13 0.07 0.04 0.03 0.02 0.02 0.02 0.03 0.02 0.02 0.02 0.02 0.03 0.03 0.02 0.01 0.01 0.02 0.03 0.03 0.02
0.02 0.01 0.00 0.00 0.00 0.00 0.00 0.00 0.00 0.00 0.01 0.01 0.01 0.00 0.00 0.00 0.00 0.01 0.01 0.00 0.00 0.00 0.01 0.01 0.00 0.00 0.01 0.02 0.04 0.03 0.02 0.02 0.02 0.02 0.03 0.03 0.02 0.01 0.01 0.02 0.03 0.02 0.02 0.02 0.02 0.03 0.05 0.04 0.02
0.02 0.02 0.01 0.00 0.00 0.00 0.00 0.00 0.00 0.01 0.01 0.02 0.01 0.00 0.00 0.00 0.00 0.01 0.01 0.00 0.00 0.00 0.01 0.01 0.00 0.00 0.00 0.01 0.01 0.01 0.01 0.01 0.02 0.02 0.02 0.02 0.02 0.02 0.02 0.02 0.02 0.01 0.01 0.01 0.01 0.02 0.02 0.02 0.02
0.01 0.01 0.01 0.01 0.00 0.00 0.00 0.00 0.01 0.01 0.01 0.01 0.01 0.00 0.00 0.00 0.00 0.01 0.01 0.00 0.00 0.00 0.01 0.01 0.01 0.01 0.00 0.00 0.01 0.01 0.00 0.00 0.01 0.02 0.03 0.02 0.03 0.04 0.03 0.01 0.01 0.01 0.00 0.00 0.01 0.01 0.02 0.02 0.02
0.00 0.00 0.00 0.01 0.01 0.01 0.00 0.01 0.01 0.01 0.02 0.01 0.01 0.01 0.01 0.01 0.01 0.00 0.00 0.00 0.00 0.00 0.01 0.01 0.01 0.01 0.01 0.00 0.01 0.01 0.00 0.00 0.01 0.02 0.02 0.03 0.03 0.04 0.02 0.01 0.00 0.00 0.00 0.01 0.01 0.01 0.02 0.03 0.03
0.00 0.00 0.00 0.01 0.01 0.02 0.01 0.01 0.01 0.02 0.01 0.01 0.01 0.01 0.01 0.01 0.01 0.01 0.01 0.01 0.01 0.00 0.00 0.00 0.01 0.01 0.01 0.01 0.00 0.00 0.00 0.01 0.01 0.02 0.01 0.01 0.01 0.01 0.01 0.01 0.01 0.01 0.01 0.01 0.01 0.02 0.03 0.03 0.03
0.01 0.01 0.00 0.00 0.01 0.01 0.01 0.02 0.01 0.01 0.01 0.01 0.01 0.00 0.01 0.00 0.01 0.02 0.01 0.01 0.01 0.01 0.00 0.00 0.01 0.01 0.01 0.00 0.01 0.00 0.00 0.00 0.00 0.01 0.01 0.01 0.01 0.01 0.01 0.01 0.01 0.01 0.01 0.02 0.02 0.02 0.03 0.03 0.04
0.00 0.00 0.01 0.01 0.00 0.01 0.01 0.01 0.01 0.01 0.01 0.01 0.01 0.00 0.01 0.01 0.01 0.02 0.02 0.01 0.01 0.01 0.01 0.01 0.00 0.00 0.00 0.00 0.00 0.00 0.00 0.00 0.00 0.00 0.00 0.00 0.01 0.01 0.01 0.01 0.01 0.01 0.01 0.02 0.02 0.02 0.03 0.05 0.06
0.01 0.01 0.01 0.01 0.01 0.01 0.01 0.02 0.02 0.01 0.01 0.01 0.00 0.01 0.01 0.02 0.02 0.02 0.02 0.02 0.01 0.01 0.01 0.01 0.00 0.00 0.00 0.00 0.01 0.00 0.01 0.01 0.00 0.01 0.00 0.00 0.01 0.01 0.01 0.01 0.01 0.01 0.01 0.02 0.02 0.03 0.03 0.04 0.06
0.01 0.01 0.01 0.02 0.02 0.01 0.01 0.01 0.02 0.02 0.01 0.02 0.01 0.01 0.01 0.02 0.02 0.02 0.03 0.02 0.02 0.01 0.01 0.01 0.01 0.00 0.00 0.00 0.00 0.00 0.00 0.01 0.01 0.01 0.01 0.01 0.01 0.01 0.01 0.01 0.01 0.01 0.01 0.02 0.02 0.02 0.03 0.04 0.05
0.01 0.02 0.01 0.02 0.03 0.02 0.01 0.01 0.01 0.02 0.01 0.02 0.02 0.02 0.02 0.01 0.01 0.02 0.02 0.02 0.02 0.02 0.02 0.01 0.02 0.02 0.01 0.00 0.00 0.00 0.00 0.01 0.01 0.01 0.01 0.01 0.00 0.01 0.01 0.01 0.02 0.02 0.01 0.01 0.01 0.01 0.02 0.04 0.04
0.01 0.02 0.01 0.01 0.02 0.02 0.01 0.00 0.01 0.02 0.02 0.02 0.02 0.02 0.02 0.01 0.01 0.01 0.02 0.02 0.01 0.02 0.02 0.02 0.02 0.02 0.02 0.01 0.01 0.01 0.00 0.01 0.01 0.01 0.01 0.01 0.01 0.01 0.01 0.01 0.01 0.01 0.02 0.01 0.01 0.01 0.02 0.04 0.04
0.01 0.01 0.01 0.00 0.01 0.01 0.01 0.01 0.00 0.01 0.02 0.02 0.02 0.02 0.01 0.01 0.01 0.01 0.02 0.03 0.03 0.03 0.03 0.03 0.02 0.02 0.02 0.01 0.02 0.02 0.01 0.01 0.01 0.01 0.01 0.01 0.01 0.01 0.01 0.01 0.01 0.01 0.02 0.01 0.01 0.01 0.02 0.04 0.05
0.01 0.00 0.01 0.00 0.00 0.01 0.01 0.01 0.01 0.01 0.01 0.01 0.02 0.02 0.01 0.01 0.01 0.01 0.01 0.02 0.03 0.04 0.04 0.04 0.03 0.02 0.02 0.02 0.02 0.03 0.03 0.02 0.01 0.01 0.01 0.01 0.02 0.02 0.01 0.00 0.01 0.01 0.02 0.01 0.01 0.00 0.01 0.02 0.04
0.01 0.01 0.01 0.00 0.00 0.00 0.00 0.00 0.00 0.00 0.00 0.01 0.01 0.01 0.01 0.01 0.01 0.01 0.01 0.01 0.01 0.02 0.03 0.03 0.04 0.04 0.04 0.04 0.02 0.03 0.03 0.02 0.01 0.01 0.01 0.01 0.02 0.03 0.01 0.01 0.01 0.01 0.01 0.01 0.01 0.01 0.00 0.01 0.02
0.01 0.01 0.01 0.01 0.01 0.00 0.00 0.01 0.01 0.01 0.01 0.01 0.01 0.01 0.00 0.01 0.01 0.01 0.01 0.00 0.01 0.01 0.03 0.04 0.05 0.05 0.05 0.05 0.04 0.03 0.03 0.03 0.03 0.01 0.01 0.01 0.01 0.02 0.01 0.01 0.01 0.01 0.01 0.00 0.00 0.01 0.01 0.01 0.02
0.01 0.01 0.01 0.01 0.00 0.00 0.01 0.01 0.01 0.01 0.01 0.00 0.01 0.01 0.01 0.00 0.00 0.00 0.01 0.00 0.00 0.01 0.02 0.03 0.04 0.06 0.06 0.07 0.08 0.06 0.04 0.04 0.02 0.01 0.02 0.02 0.02 0.02 0.01 0.01 0.01 0.01 0.01 0.00 0.00 0.01 0.01 0.01 0.02
0.01 0.01 0.01 0.01 0.01 0.01 0.01 0.01 0.01 0.01 0.01 0.00 0.00 0.01 0.00 0.00 0.00 0.00 0.00 0.00 0.00 0.00 0.01 0.01 0.02 0.02 0.03 0.04 0.08 0.13 0.08 0.05 0.03 0.02 0.02 0.02 0.02 0.02 0.01 0.01 0.01 0.01 0.01 0.01 0.01 0.01 0.01 0.01 0.01
0.01 0.01 0.01 0.01 0.02 0.02 0.01 0.01 0.01 0.01 0.01 0.00 0.01 0.01 0.00 0.00 0.00 0.00 0.00 0.00 0.01 0.01 0.01 0.01 0.01 0.01 0.02 0.02 0.04 0.09 0.12 0.08 0.05 0.03 0.02 0.02 0.01 0.01 0.01 0.01 0.01 0.01 0.01 0.01 0.02 0.01 0.01 0.02 0.02
0.01 0.01 0.01 0.01 0.02 0.03 0.02 0.01 0.01 0.00 0.00 0.00 0.00 0.00 0.00 0.00 0.01 0.00 0.01 0.01 0.01 0.01 0.00 0.00 0.01 0.01 0.02 0.03 0.03 0.05 0.06 0.06 0.05 0.04 0.03 0.02 0.02 0.01 0.01 0.01 0.01 0.01 0.01 0.01 0.02 0.01 0.01 0.01 0.02
0.01 0.01 0.01 0.01 0.01 0.01 0.01 0.02 0.01 0.00 0.00 0.00 0.00 0.00 0.00 0.00 0.01 0.01 0.01 0.01 0.01 0.00 0.00 0.00 0.01 0.01 0.01 0.02 0.03 0.04 0.04 0.04 0.04 0.04 0.03 0.03 0.02 0.01 0.01 0.01 0.01 0.01 0.00 0.01 0.01 0.01 0.01 0.02 0.02
0.00 0.00 0.00 0.00 0.00 0.01 0.01 0.01 0.01 0.00 0.00 0.00 0.00 0.00 0.00 0.00 0.01 0.01 0.01 0.01 0.01 0.00 0.00 0.00 0.00 0.01 0.01 0.01 0.02 0.04 0.05 0.05 0.05 0.04 0.03 0.03 0.03 0.02 0.01 0.01 0.01 0.01 0.01 0.01 0.00 0.01 0.02 0.03 0.03
MSLP
1007.33 1008.47 1009.87 1011.38 1012.81 1014.01 1014.88 1015.38 1015.53 1015.43 1015.20 1014.96 1014.78 1014.70 1014.69 1014.68 1014.59 1014.34 1013.89 1013.25 1012.48 1011.65 1010.86 1010.19 1009.69 1009.35 1009.14 1009.00 1008.87 1008.73 1008.56 1008.40 1008.27 1008.24 1008.32 1008.52 1008.82 1009.16 1009.50 1009.78 1009.98 1010.10 1010.16 1010.20 1010.26 1010.36 1010.50 1010.67 1010.85
1007.99 1009.35 1010.89 1012.41 1013.75 1014.77 1015.39 1015.60 1015.50 1015.18 1014.80 1014.47 1014.27 1014.21 1014.25 1014.29 1014.26 1014.05 1013.65 1013.05 1012.32 1011.54 1010.80 1010.18 1009.72 1009.40 1009.21 1009.08 1008.96 1008.84 1008.71 1008.58 1008.51 1008.52 1008.64 1008.87 1009.18 1009.52 1009.84 1010.10 1010.29 1010.41 1010.48 1010.54 1010.61 1010.71 1010.84 1010.99 1011.14
1008.81 1010.32 1011.90 1013.37 1014.55 1015.33 1015.68 1015.64 1015.30 1014.82 1014.33 1013.96 1013.76 1013.73 1013.80 1013.89 1013.89 1013.72 1013.35 1012.80 1012.12 1011.41 1010.74 1010.18 1009.77 1009.50 1009.32 1009.20 1009.10 1008.98 1008.86 1008.76 1008.72 1008.76 1008.89 1009.12 1009.42 1009.73 1010.03 1010.28 1010.47 1010.60 1010.70 1010.78 1010.88 1011.01 1011.15 1011.30 1011.44
1009.72 1011.29 1012.84 1014.17 1015.15 1015.69 1015.79 1015.53 1015.03 1014.44 1013.91 1013.53 1013.36 1013.35 1013.45 1013.56 1013.56 1013.41 1013.06 1012.55 1011.94 1011.31 1010.73 1010.26 1009.92 1009.69 1009.54 1009.43 1009.32 1009.19 1009.07 1008.96 1008.92 1008.96 1009.09 1009.31 1009.59 1009.88 1010.16 1010.40 1010.58 1010.74 1010.87 1011.00 1011.15 1011.31 1011.48 1011.64 1011.78
1010.62 1012.16 1013.59 1014.74 1015.49 1015.81 1015.72 1015.31 1014.72 1014.11 1013.60 1013.26 1013.13 1013.16 1013.27 1013.36 1013.35 1013.18 1012.85 1012.39 1011.86 1011.32 1010.85 1010.48 1010.22 1010.04 1009.91 1009.79 1009.66 1009.50 1009.34 1009.22 1009.16 1009.19 1009.31 1009.51 1009.77 1010.04 1010.30 1010.54 1010.74 1010.91 1011.08 1011.26 1011.45 1011.65 1011.85 1012.03 1012.18
1011.41 1012.84 1014.10 1015.03 1015.58 1015.71 1015.49 1015.03 1014.44 1013.89 1013.46 1013.20 1013.13 1013.18 1013.28 1013.34 1013.29 1013.10 1012.78 1012.36 1011.91 1011.48 1011.13 1010.86 1010.68 1010.55 1010.44 1010.30 1010.12 1009.93 1009.73 1009.57 1009.49 1009.50 1009.61 1009.80 1010.04 1010.30 1010.55 1010.78 1010.99 1011.19 1011.39 1011.61 1011.83 1012.07 1012.29 1012.48 1012.64
1012.02 1013.28 1014.32 1015.04 1015.40 1015.41 1015.15 1014.71 1014.21 1013.78 1013.49 1013.34 1013.34 1013.41 1013.48 1013.49 1013.39 1013.16 1012.84 1012.47 1012.10 1011.78 1011.54 1011.38 1011.28 1011.19 1011.08 1010.92 1010.71 1010.47 1010.23 1010.04 1009.94 1009.94 1010.04 1010.22 1010.46 1010.71 1010.95 1011.18 1011.39 1011.59 1011.80 1012.03 1012.28 1012.53 1012.76 1012.96 1013.12
1012.42 1013.48 1014.30 1014.82 1015.03 1014.98 1014.73 1014.38 1014.04 1013.78 1013.64 1013.62 1013.68 1013.76 1013.80 1013.75 1013.59 1013.33 1013.01 1012.68 1012.38 1012.17 1012.04 1011.97 1011.94 1011.88 1011.77 1011.60 1011.35 1011.08 1010.81 1010.61 1010.50 1010.51 1010.61 1010.80 1011.03 1011.27 1011.50 1011.70 1011.89 1012.08 1012.28 1012.50 1012.74 1012.99 1013.22 1013.42 1013.58
1012.64 1013.48 1014.09 1014.44 1014.55 1014.48 1014.29 1014.08 1013.91 1013.84 1013.86 1013.95 1014.07 1014.15 1014.15 1014.04 1013.83 1013.53 1013.21 1012.92 1012.71 1012.58 1012.54 1012.55 1012.57 1012.54 1012.44 1012.25 1012.00 1011.71 1011.44 1011.25 1011.16 1011.18 1011.30 1011.49 1011.71 1011.93 1012.13 1012.30 1012.45 1012.60 1012.77 1012.96 1013.18 1013.41 1013.63 1013.82 1013.97
1012.73 1013.38 1013.80 1014.02 1014.07 1014.01 1013.91 1013.84 1013.84 1013.93 1014.08 1014.26 1014.41 1014.48 1014.44 1014.28 1014.02 1013.71 1013.41 1013.16 1013.01 1012.95 1012.98 1013.05 1013.10 1013.10 1013.00 1012.82 1012.57 1012.30 1012.07 1011.90 1011.84 1011.89 1012.03 1012.22 1012.43 1012.62 1012.78 1012.89 1012.99 1013.09 1013.21 1013.37 1013.55 1013.76 1013.96 1014.14 1014.28
1012.77 1013.26 1013.55 1013.67 1013.68 1013.65 1013.64 1013.69 1013.82 1014.03 1014.27 1014.49 1014.65 1014.69 1014.61 1014.42 1014.13 1013.83 1013.55 1013.35 1013.25 1013.25 1013.32 1013.43 1013.50 1013.51 1013.43 1013.26 1013.05 1012.82 1012.63 1012.52 1012.51 1012.59 1012.74 1012.93 1013.12 1013.26 1013.37 1013.43 1013.47 1013.51 1013.58 1013.69 1013.84 1014.02 1014.21 1014.38 1014.51
1012.84 1013.21 1013.40 1013.46 1013.47 1013.47 1013.53 1013.67 1013.88 1014.14 1014.41 1014.64 1014.77 1014.78 1014.67 1014.45 1014.17 1013.88 1013.64 1013.48 1013.43 1013.47 1013.56 1013.68 1013.76 1013.77 1013.71 1013.57 1013.40 1013.23 1013.11 1013.06 1013.10 1013.21 1013.37 1013.55 1013.70 1013.80 1013.85 1013.86 1013.84 1013.84 1013.87 1013.95 1014.08 1014.24 1014.40 1014.56 1014.67
1012.97 1013.26 1013.40 1013.44 1013.45 1013.50 1013.60 1013.78 1014.02 1014.29 1014.53 1014.71 1014.80 1014.77 1014.63 1014.41 1014.15 1013.90 1013.71 1013.60 1013.59 1013.64 1013.74 1013.84 1013.91 1013.93 1013.88 1013.78 1013.66 1013.55 1013.49 1013.50 1013.59 1013.72 1013.88 1014.03 1014.15 1014.21 1014.21 1014.18 1014.14 1014.11 1014.12 1014.19 1014.30 1014.44 1014.59 1014.72 1014.80
1013.16 1013.41 1013.53 1013.58 1013.63 1013.71 1013.84 1014.03 1014.25 1014.48 1014.66 1014.77 1014.79 1014.71 1014.56 1014.36 1014.14 1013.95 1013.82 1013.75 1013.76 1013.81 1013.89 1013.97 1014.02 1014.02 1013.98 1013.92 1013.85 1013.81 1013.81 1013.87 1013.97 1014.11 1014.26 1014.38 1014.46 1014.48 1014.46 1014.41 1014.36 1014.34 1014.36 1014.43 1014.54 1014.67 1014.80 1014.90 1014.94
1013.36 1013.59 1013.73 1013.82 1013.91 1014.04 1014.20 1014.38 1014.56 1014.72 1014.81 1014.84 1014.79 1014.68 1014.52 1014.35 1014.19 1014.06 1013.98 1013.95 1013.97 1014.01 1014.06 1014.11 1014.12 1014.11 1014.08 1014.05 1014.03 1014.03 1014.08 1014.16 1014.28 1014.40 1014.52 1014.60 1014.65 1014.65 1014.62 1014.58 1014.55 1014.55 1014.60 1014.69 1014.82 1014.94 1015.05 1015.10 1015.09
1013.49 1013.72 1013.90 1014.05 1014.22 1014.40 1014.60 1014.78 1014.92 1015.00 1015.00 1014.94 1014.83 1014.69 1014.54 1014.40 1014.29 1014.23 1014.20 1014.20 1014.22 1014.24 1014.26 1014.26 1014.24 1014.22 1014.20 1014.19 1014.21 1014.25 1014.32 1014.42 1014.52 1014.61 1014.68 1014.73 1014.74 1014.72 1014.70 1014.69 1014.70 1014.76 1014.85 1014.97 1015.10 1015.23 1015.31 1015.32 1015.25
1013.48 1013.73 1013.96 1014.20 1014.47 1014.74 1014.98 1015.16 1015.27 1015.28 1015.21 1015.08 1014.91 1014.74 1014.60 1014.49 1014.44 1014.43 1014.44 1014.46 1014.47 1014.47 1014.44 1014.40 1014.36 1014.33 1014.32 1014.35 1014.40 1014.47 1014.55 1014.64 1014.71 1014.75 1014.77 1014.77 1014.75 1014.73 1014.72 1014.74 1014.80 1014.91 1015.04 1015.20 1015.35 1015.46 1015.52 1015.49 1015.38
1013.30 1013.57 1013.88 1014.23 1014.61 1014.98 1015.29 1015.50 1015.58 1015.54 1015.40 1015.20 1014.98 1014.79 1014.66 1014.59 1014.57 1014.60 1014.64 1014.66 1014.66 1014.63 1014.57 1014.50 1014.45 1014.42 1014.44 1014.49 1014.57 1014.67 1014.76 1014.82 1014.85 1014.84 1014.80 1014.74 1014.69 1014.66 1014.66 1014.72 1014.82 1014.97 1015.14 1015.32 1015.47 1015.58 1015.62 1015.57 1015.43
1012.96 1013.27 1013.67 1014.14 1014.65 1015.13 1015.51 1015.75 1015.82 1015.73 1015.53 1015.27 1015.01 1014.80 1014.67 1014.61 1014.63 1014.68 1014.73 1014.76 1014.74 1014.68 1014.59 1014.51 1014.46 1014.45 1014.49 1014.59 1014.71 1014.82 1014.92 1014.96 1014.95 1014.88 1014.78 1014.67 1014.57 1014.52 1014.52 1014.60 1014.72 1014.89 1015.08 1015.27 1015.42 1015.52 1015.54 1015.49 1015.36
1012.54 1012.90 1013.40 1014.01 1014.64 1015.22 1015.67 1015.93 1015.98 1015.85 1015.59 1015.27 1014.97 1014.73 1014.59 1014.55 1014.58 1014.64 1014.70 1014.71 1014.68 1014.60 1014.50 1014.41 1014.37 1014.39 1014.48 1014.62 1014.78 1014.93 1015.03 1015.05 1015.00 1014.88 1014.73 1014.56 1014.42 1014.34 1014.32 1014.39 1014.51 1014.68 1014.86 1015.03 1015.16 1015.25 1015.27 1015.23 1015.13
1012.16 1012.60 1013.21 1013.94 1014.68 1015.34 1015.82 1016.08 1016.10 1015.90 1015.57 1015.19 1014.83 1014.57 1014.42 1014.37 1014.41 1014.48 1014.54 1014.55 1014.50 1014.41 1014.30 1014.22 1014.21 1014.27 1014.40 1014.60 1014.80 1014.98 1015.09 1015.11 1015.04 1014.88 1014.67 1014.45 1014.27 1014.14 1014.09 1014.12 1014.22 1014.35 1014.50 1014.64 1014.74 1014.80 1014.82 1014.80 1014.76
1011.96 1012.49 1013.21 1014.04 1014.86 1015.55 1016.03 1016.25 1016.19 1015.91 1015.50 1015.05 1014.64 1014.34 1014.18 1014.15 1014.20 1014.28 1014.34 1014.35 1014.29 1014.19 1014.09 1014.02 1014.03 1014.12 1014.30 1014.54 1014.79 1015.01 1015.14 1015.17 1015.08 1014.89 1014.65 1014.39 1014.16 1013.99 1013.89 1013.88 1013.92 1014.00 1014.08 1014.16 1014.22 1014.25 1014.26 1014.27 1014.27
1012.03 1012.67 1013.49 1014.39 1015.24 1015.92 1016.34 1016.47 1016.31 1015.92 1015.42 1014.89 1014.44 1014.12 1013.96 1013.94 1014.01 1014.11 1014.19 1014.20 1014.15 1014.05 1013.95 1013.89 1013.91 1014.03 1014.24 1014.52 1014.81 1015.05 1015.21 1015.24 1015.16 1014.96 1014.70 1014.42 1014.15 1013.94 1013.79 1013.72 1013.69 1013.70 1013.71 1013.72 1013.72 1013.71 1013.70 1013.71 1013.74
1012.43 1013.18 1014.07 1015.00 1015.83 1016.44 1016.76 1016.76 1016.47 1015.96 1015.35 1014.76 1014.27 1013.95 1013.81 1013.82 1013.93 1014.07 1014.17 1014.20 1014.16 1014.07 1013.97 1013.91 1013.93 1014.06 1014.29 1014.58 1014.89 1015.15 1015.33 1015.38 1015.31 1015.12 1014.86 1014.57 1014.28 1014.03 1013.84 1013.71 1013.61 1013.54 1013.48 1013.41 1013.34 1013.27 1013.22 1013.20 1013.24
1013.11 1013.95 1014.89 1015.80 1016.56 1017.06 1017.23 1017.08 1016.64 1016.01 1015.31 1014.67 1014.18 1013.88 1013.78 1013.85 1014.02 1014.20 1014.35 1014.41 1014.39 1014.31 1014.20 1014.14 1014.15 1014.27 1014.48 1014.76 1015.07 1015.34 1015.52 1015.59 1015.54 1015.37 1015.13 1014.84 1014.55 1014.28 1014.06 1013.87 1013.72 1013.57 1013.43 1013.28 1013.14 1013.00 1012.90 1012.83 1012.83
1013.96 1014.87 1015.81 1016.67 1017.32 1017.67 1017.68 1017.36 1016.78 1016.04 1015.29 1014.63 1014.16 1013.91 1013.88 1014.03 1014.27 1014.52 1014.72 1014.83 1014.83 1014.75 1014.65 1014.56 1014.56 1014.64 1014.83 1015.08 1015.36 1015.62 1015.80 1015.88 1015.84 1015.70 1015.48 1015.21 1014.94 1014.67 1014.42 1014.20 1013.99 1013.79 1013.58 1013.36 1013.14 1012.93 1012.76 1012.63 1012.55
1014.84 1015.78 1016.69 1017.45 1017.95 1018.14 1017.97 1017.50 1016.81 1016.01 1015.24 1014.60 1014.19 1014.02 1014.08 1014.32 1014.64 1014.97 1015.23 1015.38 1015.41 1015.35 1015.24 1015.14 1015.11 1015.16 1015.30 1015.51 1015.75 1015.97 1016.14 1016.21 1016.19 1016.07 1015.88 1015.64 1015.38 1015.12 1014.87 1014.63 1014.38 1014.13 1013.87 1013.59 1013.30 1013.03 1012.78 1012.58 1012.42
1015.59 1016.51 1017.34 1017.97 1018.32 1018.33 1018.02 1017.43 1016.66 1015.84 1015.10 1014.53 1014.20 1014.14 1014.31 1014.64 1015.05 1015.46 1015.77 1015.97 1016.03 1015.99 1015.90 1015.79 1015.73 1015.75 1015.84 1016.00 1016.19 1016.37 1016.51 1016.57 1016.54 1016.44 1016.27 1016.06 1015.82 1015.58 1015.33 1015.07 1014.81 1014.52 1014.22 1013.89 1013.56 1013.23 1012.92 1012.65 1012.41
1016.09 1016.94 1017.64 1018.12 1018.29 1018.15 1017.72 1017.06 1016.27 1015.48 1014.81 1014.36 1014.15 1014.21 1014.49 1014.92 1015.41 1015.88 1016.25 1016.49 1016.59 1016.58 1016.51 1016.41 1016.35 1016.34 1016.40 1016.51 1016.64 1016.78 1016.87 1016.91 1016.87 1016.77 1016.61 1016.42 1016.20 1015.97 1015.72 1015.46 1015.18 1014.88 1014.54 1014.19 1013.82 1013.46 1013.11 1012.78 1012.49
1016.28 1017.00 1017.55 1017.85 1017.87 1017.59 1017.07 1016.38 1015.63 1014.93 1014.38 1014.06 1014.00 1014.18 1014.57 1015.08 1015.64 1016.16 1016.57 1016.85 1017.00 1017.04 1017.00 1016.94 1016.89 1016.88 1016.92 1017.00 1017.09 1017.17 1017.22 1017.22 1017.16 1017.05 1016.89 1016.70 1016.49 1016.27 1016.02 1015.76 1015.46 1015.14 1014.79 1014.42 1014.03 1013.65 1013.28 1012.93 1012.61
Thickness
5790 5790 5787 5772 5745 5723 5720 5732 5742 5745 5748 5754 5758 5753 5743 5737 5732 5726 5748 5757 5758 5758 5759 5760 5761 5762 5763 5764 5765 5766 5766 5767 5768 5768 5769 5769 5770 5770 5771 5771 5771 5771 5771 5771 5771 5771 5771 5771 5772
5790 5788 5775 5755 5726 5708 5717 5734 5740 5748 5753 5758 5756 5751 5744 5739 5746 5746 5750 5755 5757 5757 5757 5758 5759 5759 5760 5761 5762 5763 5764 5764 5765 5765 5766 5766 5767 5767 5768 5768 5768 5768 5768 5768 5768 5768 5768 5768 5768
5789 5783 5760 5738 5721 5712 5721 5736 5744 5754 5760 5758 5749 5748 5743 5739 5746 5748 5753 5755 5755 5755 5756 5756 5757 5757 5758 5759 5759 5760 5760 5761 5761 5762 5763 5763 5764 5764 5764 5765 5765 5765 5765 5765 5765 5765 5765 5765 5765
5781 5766 5750 5729 5722 5730 5736 5742 5750 5750 5753 5755 5748 5738 5742 5750 5751 5752 5754 5754 5753 5753 5753 5754 5754 5755 5756 5756 5757 5757 5757 5758 5758 5758 5759 5760 5760 5760 5761 5761 5761 5761 5761 5761 5761 5761 5762 5762 5762
5773 5751 5732 5720 5726 5738 5746 5751 5753 5747 5746 5746 5743 5731 5733 5748 5754 5753 5752 5752 5750 5750 5751 5751 5752 5752 5753 5753 5754 5754 5754 5754 5755 5755 5755 5756 5756 5757 5757 5757 5757 5757 5757 5757 5757 5758 5758 5758 5758
5754 5741 5719 5713 5726 5739 5747 5753 5751 5745 5742 5744 5740 5730 5731 5746 5749 5749 5750 5749 5749 5748 5748 5749 5749 5750 5750 5750 5751 5751 5751 5751 5751 5751 5752 5752 5752 5752 5752 5753 5753 5753 5753 5753 5753 5754 5754 5754 5754
5746 5732 5721 5721 5724 5732 5745 5754 5749 5743 5741 5743 5744 5729 5731 5740 5747 5750 5749 5748 5746 5746 5745 5745 5746 5746 5747 5748 5750 5749 5748 5747 5747 5748 5748 5748 5748 5748 5748 5749 5749 5749 5749 5750 5750 5750 5750 5750 5750
5754 5734 5723 5723 5724 5730 5748 5753 5753 5748 5743 5752 5748 5730 5727 5739 5748 5748 5746 5744 5743 5742 5742 5742 5742 5743 5744 5745 5746 5745 5744 5744 5744 5744 5744 5744 5744 5744 5744 5745 5745 5745 5745 5745 5746 5746 5746 5745 5745
5757 5726 5715 5724 5727 5734 5748 5748 5751 5757 5750 5749 5749 5744 5745 5747 5746 5742 5739 5738 5738 5738 5739 5739 5739 5740 5740 5741 5740 5740 5740 5739 5739 5739 5740 5740 5740 5740 5740 5740 5740 5741 5741 5741 5742 5742 5742 5741 5740
5743 5719 5727 5740 5743 5742 5747 5747 5747 5743 5737 5737 5740 5745 5748 5745 5741 5737 5734 5733 5733 5734 5735 5737 5737 5737 5738 5738 5737 5737 5736 5735 5735 5735 5736 5736 5736 5735 5735 5736 5736 5736 5737 5737 5737 5737 5737 5736 5736
5743 5731 5740 5747 5752 5751 5746 5746 5748 5736 5728 5733 5735 5738 5741 5740 5737 5735 5734 5734 5734 5735 5735 5735 5735 5735 5735 5735 5734 5733 5733 5732 5732 5732 5732 5732 5731 5731 5731 5731 5731 5732 5732 5732 5732 5732 5732 5732 5731
5742 5742 5747 5748 5754 5751 5746 5746 5741 5739 5738 5746 5746 5745 5741 5737 5735 5735 5733 5734 5735 5735 5734 5734 5734 5733 5732 5732 5731 5730 5730 5729 5729 5729 5729 5728 5728 5727 5727 5727 5727 5727 5727 5727 5727 5727 5727 5727 5726
5739 5741 5748 5750 5752 5751 5748 5742 5739 5739 5746 5748 5747 5743 5738 5737 5736 5736 5736 5735 5735 5733 5733 5733 5733 5731 5730 5729 5729 5728 5727 5727 5727 5726 5726 5726 5725 5724 5723 5723 5723 5723 5723 5723 5723 5722 5722 5722 5722
5742 5743 5744 5747 5747 5747 5740 5737 5736 5736 5745 5743 5740 5737 5737 5736 5735 5733 5732 5731 5732 5732 5732 5733 5732 5730 5729 5728 5727 5726 5725 5725 5724 5724 5724 5723 5722 5721 5720 5719 5719 5719 5719 5719 5718 5718 5718 5717 5717
5746 5736 5734 5738 5741 5741 5737 5724 5729 5738 5741 5737 5735 5735 5735 5734 5734 5733 5732 5732 5732 5732 5732 5732 5730 5729 5727 5726 5725 5724 5723 5723 5722 5721 5721 5720 5719 5718 5717 5716 5715 5715 5715 5715 5715 5714 5713 5712 5712
5735 5722 5712 5727 5736 5737 5726 5707 5726 5737 5735 5729 5730 5731 5730 5730 5731 5733 5733 5733 5732 5731 5730 5730 5730 5727 5725 5724 5723 5722 5721 5720 5719 5719 5718 5717 5716 5715 5714 5712 5711 5711 5711 5711 5710 5709 5707 5706 5706
5713 5703 5705 5718 5732 5731 5721 5710 5725 5733 5731 5725 5726 5726 5725 5725 5727 5730 5732 5732 5731 5730 5728 5727 5727 5725 5723 5722 5721 5720 5718 5717 5716 5716 5715 5714 5713 5712 5711 5709 5708 5708 5707 5706 5706 5704 5703 5701 5701
5700 5702 5706 5710 5725 5724 5714 5711 5721 5727 5727 5722 5722 5722 5722 5722 5724 5729 5730 5730 5730 5728 5726 5725 5724 5722 5720 5719 5717 5715 5714 5713 5713 5712 5712 5711 5710 5709 5708 5706 5705 5704 5703 5701 5701 5699 5698 5697 5697
5714 5708 5705 5712 5726 5718 5709 5708 5714 5720 5721 5718 5717 5719 5719 5721 5725 5727 5727 5727 5727 5725 5722 5721 5720 5718 5717 5714 5712 5709 5708 5708 5708 5709 5709 5708 5707 5706 5705 5703 5701 5700 5699 5698 5697 5696 5694 5692 5692
5714 5705 5703 5711 5723 5716 5705 5706 5713 5718 5718 5719 5718 5717 5718 5719 5720 5722 5722 5723 5722 5721 5720 5718 5717 5716 5715 5714 5712 5710 5708 5706 5707 5706 5705 5705 5704 5703 5702 5700 5698 5697 5695 5694 5693 5692 5689 5688 5688
5711 5706 5705 5706 5713 5713 5703 5696 5705 5714 5719 5720 5720 5719 5719 5719 5719 5718 5718 5718 5718 5717 5717 5717 5715 5714 5713 5713 5711 5708 5704 5703 5701 5701 5701 5701 5701 5700 5699 5698 5696 5694 5693 5690 5690 5689 5686 5683 5683
5704 5718 5716 5711 5698 5688 5697 5675 5695 5705 5708 5712 5714 5714 5715 5718 5718 5717 5716 5715 5715 5716 5716 5715 5714 5712 5711 5710 5707 5704 5700 5697 5698 5699 5698 5699 5698 5697 5696 5695 5693 5692 5690 5688 5687 5686 5684 5682 5678
5713 5722 5717 5711 5698 5688 5690 5678 5687 5700 5700 5706 5711 5714 5715 5716 5717 5716 5715 5715 5715 5715 5713 5712 5711 5709 5708 5706 5705 5702 5699 5698 5697 5697 5695 5695 5694 5694 5693 5691 5690 5688 5687 5685 5684 5682 5681 5679 5677
5723 5713 5706 5695 5686 5673 5685 5678 5681 5693 5704 5709 5713 5714 5715 5715 5715 5714 5715 5714 5712 5711 5710 5708 5706 5705 5705 5703 5702 5700 5697 5695 5693 5692 5691 5690 5689 5689 5689 5688 5686 5685 5684 5682 5681 5680 5678 5677 5676
5710 5685 5667 5665 5658 5664 5687 5682 5686 5707 5716 5717 5715 5714 5715 5715 5712 5710 5709 5709 5708 5706 5705 5704 5702 5701 5701 5700 5698 5697 5695 5694 5691 5690 5688 5686 5684 5684 5684 5684 5682 5681 5680 5679 5678 5676 5675 5674 5673
5702 5687 5663 5654 5652 5662 5680 5678 5694 5714 5720 5720 5718 5715 5713 5711 5710 5709 5708 5707 5706 5704 5703 5701 5699 5698 5697 5696 5695 5694 5693 5691 5689 5688 5686 5684 5683 5682 5681 5680 5679 5677 5676 5675 5674 5672 5671 5671 5669
5697 5686 5686 5668 5666 5659 5667 5681 5697 5711 5711 5711 5710 5709 5708 5708 5708 5707 5706 5705 5703 5701 5700 5698 5696 5695 5694 5693 5692 5690 5689 5688 5687 5685 5683 5682 5681 5679 5678 5676 5675 5673 5672 5671 5670 5668 5667 5666 5665
5705 5694 5673 5664 5653 5647 5661 5670 5677 5694 5699 5703 5703 5703 5705 5706 5705 5704 5703 5702 5700 5699 5697 5695 5694 5692 5691 5690 5688 5687 5686 5685 5684 5681 5679 5677 5676 5675 5673 5672 5671 5669 5668 5666 5665 5664 5663 5661 5661
5693 5688 5677 5662 5658 5647 5647 5665 5698 5699 5701 5700 5700 5702 5702 5702 5702 5701 5699 5698 5696 5695 5693 5690 5689 5687 5686 5685 5683 5682 5681 5680 5678 5676 5675 5674 5672 5671 5669 5668 5667 5665 5663 5662 5660 5659 5658 5657 5656
5696 5689 5676 5659 5657 5654 5649 5665 5705 5704 5704 5702 5699 5699 5700 5699 5698 5697 5695 5692 5690 5688 5687 5685 5684 5682 5681 5680 5678 5677 5676 5674 5672 5670 5670 5669 5668 5667 5665 5664 5662 5660 5659 5657 5655 5654 5653 5651 5650